Location: Killam
(52.7910°N, 111.8608°W)
Time: 12:54:50
(UTC+00:00)

Gurwin Techsat 1B - Visible Passes

Search period start: 08 December 2023 00:00
Search period end: 18 December 2023 00:00
Orbit: 811 x 813 km, 98.9° (Epoch: 07 December)

Date Brightness Start Highest point End Pass type
(mag) Time Alt. Az. Time Alt. Az. Time Alt. Az.
08 Dec 10.8 12:10:17 10° N 12:10:55 13° N 12:10:55 13° N visible
09 Dec 11.0 11:46:57 10° N 11:47:26 13° N 11:47:26 13° N visible
10 Dec 11.1 11:23:42 10° NNE 11:23:57 11° NNE 11:23:57 11° NNE visible
10 Dec 10.8 13:04:51 10° NNW 13:05:07 11° NNW 13:05:07 11° NNW visible
11 Dec 10.8 12:41:13 10° N 12:41:39 12° N 12:41:39 12° N visible
12 Dec 10.9 12:17:44 10° N 12:18:10 12° N 12:18:10 12° N visible
13 Dec 11.0 11:54:22 10° N 11:54:42 12° N 11:54:42 12° N visible
14 Dec 11.2 11:31:06 10° N 11:31:13 11° N 11:31:13 11° N visible
15 Dec 10.8 12:48:43 10° N 12:48:57 11° N 12:48:57 11° N visible
16 Dec 10.9 12:25:13 10° N 12:25:29 11° N 12:25:29 11° N visible
17 Dec 11.0 12:01:49 10° N 12:02:01 11° N 12:02:01 11° N visible
